Theta_e
281 282 282 282 282 282 283 284 286 287 287 286 286 285 285 285 285 284 283 283 283 283 283 283 282 283 282 283 283 283 282 282 280 281 283 284 284 284 285 285 285 285 285
281 281 281 281 281 281 281 282 284 285 286 286 286 285 284 284 284 283 282 283 282 281 282 282 281 283 281 281 281 281 281 282 281 279 280 279 282 283 283 283 284 286 286
280 280 280 280 280 280 280 281 282 284 285 285 286 285 285 284 284 283 283 283 282 282 282 282 282 282 281 281 280 279 280 282 281 280 278 277 278 279 281 282 283 284 285
279 279 278 279 279 280 280 280 280 282 284 285 285 285 285 284 284 284 284 283 283 283 283 283 282 281 281 281 280 280 280 279 278 278 277 277 276 279 279 281 281 282 282
278 277 277 278 279 280 280 279 280 281 283 284 284 284 284 285 285 283 283 283 282 281 282 282 282 282 284 283 282 280 279 278 278 278 277 278 277 278 278 279 280 280 281
276 276 276 277 278 277 278 278 279 279 281 282 283 283 283 284 285 286 285 282 282 281 281 281 282 282 283 285 285 285 283 278 279 278 278 277 278 279 279 279 278 277 276
275 275 275 275 275 275 276 277 278 279 280 280 281 282 282 282 285 286 286 284 282 281 280 280 280 281 281 281 283 284 283 283 283 280 278 279 278 279 280 278 278 278 277
273 274 274 274 274 275 274 274 276 278 279 280 280 281 281 282 285 286 285 283 281 280 280 279 278 279 279 279 279 280 280 280 280 280 279 279 279 280 279 279 279 279 280
273 273 273 273 273 273 273 274 275 277 279 279 280 281 281 281 284 285 284 280 279 278 279 279 279 279 281 282 280 279 279 278 282 283 284 284 284 285 284 283 281 279 277
274 274 273 272 272 272 273 274 276 277 279 280 280 280 280 279 282 283 283 278 275 278 277 278 280 278 281 282 279 278 276 277 277 278 278 280 281 280 283 282 281 278 278
275 274 273 272 271 272 273 274 275 276 277 278 278 279 277 277 277 282 283 280 278 276 276 277 278 281 282 283 283 280 278 279 279 279 278 278 277 273 277 279 280 280 279
274 273 272 271 272 273 272 273 273 274 275 276 276 275 276 276 278 281 282 282 282 278 277 278 278 281 282 282 282 283 283 282 280 276 274 275 275 275 275 276 279 280 282
271 270 270 270 271 272 271 271 272 273 273 274 275 274 275 277 277 281 282 282 282 279 279 279 281 281 282 281 281 281 279 275 270 266 273 274 275 276 274 275 278 277 280
270 269 270 269 270 270 271 272 271 272 272 273 274 274 274 275 275 277 279 279 280 280 280 278 279 280 281 280 276 279 276 276 275 275 274 274 275 273 274 275 274 277 277
268 268 268 269 269 269 270 270 272 273 274 274 275 275 274 273 275 279 278 277 277 278 277 276 275 275 275 273 272 273 273 272 273 275 275 274 273 274 274 275 275 277 276
266 267 267 267 267 268 268 269 273 274 276 277 277 277 277 279 281 282 282 282 282 281 276 266 271 271 272 272 271 272 270 272 273 272 272 272 272 274 273 274 276 276 276
265 266 266 267 266 266 267 267 266 269 273 274 275 276 277 277 278 279 279 280 280 279 270 267 268 269 270 271 271 269 269 267 265 265 266 269 270 271 272 273 274 275 275
265 264 265 266 266 266 265 266 266 267 266 267 272 273 274 275 276 277 277 277 267 268 262 260 261 264 268 269 268 265 265 267 267 267 267 268 269 270 271 273 274 274 274
262 262 263 263 264 264 265 265 266 267 267 266 267 269 269 272 273 274 274 265 263 259 258 259 261 264 264 263 263 262 261 264 266 266 266 267 269 270 271 274 275 273 273
260 261 261 261 264 263 263 263 264 265 266 266 265 265 264 259 262 264 263 261 262 263 264 265 265 263 263 262 263 260 258 260 264 264 264 266 269 271 272 274 274 273 272
259 260 261 261 261 261 262 262 263 264 264 264 265 265 270 268 266 261 261 262 262 264 260 259 263 263 261 262 261 260 261 263 264 264 264 267 269 272 274 275 274 272 272
259 259 258 258 260 261 262 263 263 263 264 264 264 265 269 265 263 262 260 259 258 258 260 261 263 264 260 259 259 260 262 262 263 261 264 266 269 272 274 273 273 271 272
257 257 257 258 260 262 261 262 262 263 263 263 263 262 263 263 263 261 261 261 258 258 258 258 261 262 261 259 260 263 263 263 262 262 264 266 269 269 273 273 270 267 268
257 257 258 259 260 261 260 260 261 262 262 262 261 262 262 262 262 263 262 262 261 261 262 261 261 261 262 262 264 264 264 264 265 265 265 266 267 271 273 271 267 268 268
257 257 258 259 260 260 260 260 260 260 260 261 261 261 261 262 262 262 262 260 261 260 260 260 261 261 261 263 264 264 265 266 266 266 267 267 267 268 272 269 268 267 265
256 257 258 259 260 260 260 259 259 259 259 259 260 260 261 261 261 261 261 260 260 260 260 261 261 262 263 264 264 265 266 267 267 267 267 267 268 270 271 268 268 265 262
Wind_Speed
14 15 15 16 17 18 17 18 17 15 13 10 9 8 7 6 6 5 5 5 5 5 4 4 5 4 3 3 3 3 3 3 7 4 3 3 3 7 6 4 4 5 5
14 15 16 16 16 16 17 19 19 17 13 9 7 8 6 6 6 6 6 5 5 5 5 5 6 4 4 4 3 4 4 4 5 9 3 3 6 4 5 8 9 7 8
14 15 16 17 17 17 17 18 19 18 13 7 8 10 8 6 6 6 6 7 7 7 6 6 6 5 5 4 4 4 4 5 4 5 6 2 3 3 6 7 8 9 9
14 15 16 15 17 16 16 17 18 17 15 9 9 10 9 6 5 5 6 6 6 6 6 6 6 7 7 6 5 5 5 4 3 5 5 5 3 5 5 8 9 6 8
14 15 15 16 17 17 15 15 16 15 12 11 9 7 7 4 5 7 7 10 8 7 6 6 6 7 11 10 5 5 5 5 5 7 9 7 7 5 7 4 8 8 6
12 14 14 15 16 17 17 17 16 15 14 13 12 9 9 5 16 12 14 9 6 5 6 7 6 7 9 16 16 17 11 5 8 8 8 9 10 10 6 7 7 8 10
12 13 13 14 16 17 17 17 16 14 13 13 13 11 10 8 14 16 20 9 7 7 7 7 6 5 7 7 11 15 14 13 15 10 10 10 11 9 9 9 11 10 10
12 13 12 15 17 18 17 16 16 15 15 13 13 12 10 10 17 19 21 10 7 7 8 7 7 8 6 5 6 8 10 8 10 8 9 10 11 12 10 11 12 13 11
12 12 14 14 17 18 18 18 16 15 14 12 11 11 8 9 16 18 16 4 5 7 7 8 7 8 12 14 8 9 8 9 11 18 20 21 21 22 21 11 8 6 9
14 14 14 14 14 17 18 18 16 14 14 9 8 7 10 9 12 14 10 2 4 5 5 7 13 9 15 14 8 7 9 9 7 9 7 11 14 12 21 13 9 10 10
16 15 15 15 15 14 15 14 14 14 13 11 10 8 6 5 8 14 14 5 4 4 4 4 4 13 14 15 17 8 9 8 10 8 6 7 6 5 6 8 10 10 10
15 16 15 15 13 12 14 13 13 12 12 11 9 8 6 6 11 13 14 11 8 5 5 4 5 13 15 16 14 16 19 17 6 4 5 8 7 7 6 7 10 11 11
14 17 15 15 14 13 13 14 12 12 9 9 8 7 7 4 4 11 12 10 10 5 2 6 13 16 17 14 14 18 14 4 3 2 7 9 7 7 7 8 9 9 11
16 16 15 14 15 12 10 9 9 10 9 9 8 7 6 6 3 3 4 5 9 7 8 6 9 14 15 14 6 9 5 6 7 7 7 7 6 4 7 7 7 9 8
16 16 15 11 12 13 11 10 10 10 11 11 9 7 7 6 5 9 8 4 5 9 8 5 4 3 4 4 4 6 5 5 6 7 7 7 7 7 8 6 7 9 8
16 13 12 11 10 11 11 11 17 22 23 22 23 17 8 16 19 15 14 14 15 15 5 2 4 3 4 5 5 6 3 7 6 5 5 6 8 8 7 8 9 9 7
15 14 12 13 10 11 10 11 14 15 20 20 19 20 20 20 19 17 16 16 16 14 1 1 2 2 5 5 4 4 6 3 3 3 4 8 9 9 10 9 9 8 6
13 18 13 11 11 8 11 11 11 11 12 10 12 18 19 20 20 18 16 13 4 5 1 2 3 3 4 5 4 2 2 4 5 6 7 8 8 9 9 9 8 7 7
14 13 13 13 12 12 11 11 10 12 9 8 9 12 9 18 19 18 17 2 3 2 3 4 4 5 5 5 5 4 4 4 6 7 8 8 8 8 9 9 9 8 7
13 17 15 12 9 10 11 11 10 10 10 8 8 8 6 4 5 4 3 2 3 4 3 5 4 4 5 5 6 5 3 3 6 6 8 9 10 8 9 10 7 7 5
11 12 17 9 11 10 10 10 10 9 10 9 8 8 20 10 6 2 3 4 5 6 4 3 5 5 4 4 4 3 4 6 7 7 8 8 8 10 9 7 7 6 4
10 11 12 11 11 11 10 10 10 10 9 9 9 9 21 8 6 6 5 5 5 5 5 6 7 7 4 5 5 5 7 7 7 5 7 8 9 11 6 6 6 3 3
12 12 12 11 11 12 11 10 10 9 9 9 9 9 8 7 7 7 7 6 4 5 4 4 7 7 5 5 5 7 8 8 7 5 8 9 8 10 8 6 3 2 2
12 12 12 12 11 10 10 10 10 12 11 9 9 9 8 8 8 9 8 6 5 5 6 6 7 9 8 7 7 7 7 8 7 7 9 9 10 11 7 4 3 3 1
11 11 12 12 11 10 10 10 10 10 10 10 10 9 9 9 9 9 8 6 6 7 7 7 7 8 10 13 12 12 12 14 12 11 7 9 11 13 10 3 2 2 2
11 11 11 11 10 10 10 10 10 10 10 10 10 10 10 10 9 9 8 7 7 7 8 7 8 12 14 11 11 11 13 14 13 14 10 9 9 9 4 2 3 2 3
Wind_Direction
327 325 321 318 319 318 315 314 304 289 275 265 266 246 232 234 239 246 251 257 256 262 266 257 259 255 256 257 252 250 250 230 262 273 246 276 278 289 299 283 266 265 255
323 321 318 315 312 313 312 311 310 296 280 252 266 254 235 228 222 218 224 234 237 249 254 262 265 272 264 265 266 257 251 251 263 276 235 251 250 261 279 295 294 286 287
319 318 317 317 315 310 308 310 309 306 282 269 274 262 255 231 235 236 222 217 215 215 219 226 235 236 247 246 254 265 269 275 268 277 281 243 260 267 281 275 276 283 282
315 317 314 313 313 308 305 308 308 305 297 292 283 272 256 233 226 262 250 236 229 221 221 224 226 222 229 234 235 234 251 259 272 280 279 272 248 257 240 272 282 268 276
313 313 310 313 315 316 310 305 305 301 291 289 273 261 247 263 267 248 265 256 239 231 227 235 238 231 235 240 238 226 219 242 259 278 280 277 275 276 264 268 282 286 278
306 309 313 314 313 316 314 309 303 301 296 286 272 255 254 267 251 263 266 247 234 235 244 250 245 246 253 260 262 263 246 211 239 260 270 269 271 276 268 269 279 287 291
309 310 313 315 314 314 312 312 308 301 300 295 282 259 249 230 251 254 256 252 222 225 225 241 244 236 240 246 260 266 266 269 269 266 269 270 278 276 284 281 275 268 268
309 311 315 319 318 317 313 310 310 306 302 294 281 261 249 252 249 254 258 250 226 221 226 230 232 249 234 228 235 243 261 246 252 260 260 262 265 267 257 258 263 266 266
311 312 318 319 315 315 313 313 311 304 302 289 276 267 261 256 257 260 262 231 219 227 227 227 228 245 252 262 261 262 259 253 257 265 269 273 273 279 279 268 262 278 289
316 315 315 314 309 308 311 313 312 310 310 307 293 277 263 258 258 265 266 187 223 230 224 230 239 240 261 266 255 243 254 262 254 262 259 267 271 269 279 276 281 279 275
316 312 311 310 306 302 305 311 311 313 313 307 296 285 267 256 272 273 268 249 227 212 219 233 236 259 267 268 269 251 249 256 262 273 274 267 259 256 260 258 256 252 269
314 310 308 306 305 305 307 311 312 310 313 311 298 292 273 259 256 264 258 244 247 224 225 222 228 262 273 276 278 279 280 286 279 256 266 278 278 273 263 261 260 264 257
315 310 307 304 303 303 308 310 312 315 311 311 308 298 296 282 236 262 269 285 276 268 173 228 257 266 273 280 294 293 293 274 251 229 268 276 271 266 273 276 274 265 264
312 307 306 304 303 304 303 300 300 306 309 305 297 292 289 291 266 251 250 245 267 276 273 266 261 270 271 274 273 279 265 265 257 263 265 267 272 266 268 264 269 281 260
311 306 303 301 305 304 300 299 297 298 295 303 307 296 284 275 255 262 258 236 232 241 248 247 241 223 256 249 247 257 265 257 257 258 259 266 272 277 276 271 271 272 250
311 306 306 304 306 302 300 301 302 303 306 309 312 308 302 306 316 295 284 289 294 293 276 222 256 234 250 269 268 267 237 261 262 271 273 271 279 283 286 286 280 265 252
305 304 308 304 301 302 303 309 307 308 306 310 312 312 317 312 312 312 310 305 300 298 278 265 260 271 287 290 289 285 281 251 260 274 270 282 283 279 275 275 272 256 255
308 315 302 301 296 309 309 300 301 298 304 312 316 313 312 318 319 313 314 319 3 352 9 257 259 263 279 278 271 242 246 275 282 282 279 277 276 273 278 274 264 258 267
318 312 312 304 300 297 297 292 299 297 293 299 312 310 309 314 318 313 314 340 294 263 253 266 255 271 270 255 256 248 238 262 275 278 276 272 270 270 271 270 264 253 253
312 307 308 302 307 322 308 304 299 302 306 302 302 304 307 312 295 275 258 270 268 269 270 277 267 241 253 260 269 253 239 252 265 272 277 275 276 271 263 266 253 263 248
309 308 307 318 310 305 301 300 301 298 303 300 297 296 302 306 323 288 267 268 271 286 273 260 278 271 265 260 254 248 245 265 271 269 264 270 283 278 258 253 264 251 242
313 318 310 305 303 301 298 302 301 300 301 302 302 303 307 308 294 289 276 263 253 249 257 267 276 279 251 245 247 245 265 262 264 261 279 279 280 292 266 267 259 237 242
311 307 304 301 300 298 313 310 306 302 301 300 303 302 298 291 286 279 276 276 258 253 249 244 263 272 258 236 231 251 255 258 255 252 264 271 286 291 278 272 240 232 215
306 305 303 301 296 309 307 309 309 309 307 304 299 295 294 294 290 287 281 277 268 266 265 261 254 260 266 260 259 251 250 255 252 256 263 274 281 298 285 253 209 200 159
310 308 305 308 307 310 311 310 308 308 307 304 302 299 295 292 291 288 285 273 274 275 273 270 262 259 258 260 257 257 255 260 260 257 261 269 274 280 282 218 173 118 120
311 306 311 304 315 313 311 311 310 309 307 304 300 297 294 290 287 286 283 276 272 270 269 271 266 265 269 267 266 264 265 263 256 249 244 248 257 267 244 187 144 113 113